User: anonymous   Login
Location: The D'Auria's Ocala Star Observatory
(29.0276°N, 82.1742°W)
Time: 00:22:51
(UTC-04:00)
Language:

Okean 3 Rocket - Orbit

View from above orbital plane
View from above orbital plane
View from above satellite
View from above satellite

Ground track
Ground track

The orbit data is extracted from the following two-line orbital elements,

1 21398U 91039B   17295.54136015  .00000058  00000-0  45888-5 0  9995
2 21398  82.5200 107.6440 0022723 123.1368 297.2568 14.79681352422748
Epoch (UTC): 22 October 2017 12:59:33
Eccentricity: 0.0022723
inclination: 82.5200°
perigee height: 614 km
apogee height: 646 km
right ascension of ascending node: 107.6440°
argument of perigee: 123.1368°
revolutions per day: 14.79681352
mean anomaly at epoch: 297.2568°
orbit number at epoch: 42274

The dashed part of the orbit path shows where the satellite is in the earth's shadow,  

DLR